Regional Weather Roundup
Issued by NWS

Home | Current Version | Previous Version | Graphics & Text | Print | Product List | Glossary On
Versions: 1 2 3 4 5 6 7 8 9 10 11 12 13 14 15 16 17 18 19 20 21 22 23 24 25 26 27 28 29 30 31 32 33 34 35 36 37 38 39 40 41 42 43 44 45 46 47 48 49 50
000
ASUS43 KMPX 061210
RWRMN
WEATHER ROUNDUP FOR MINNESOTA
NATIONAL WEATHER SERVICE TWIN CITIES/CHANHASSEN MN
600 AM CST SAT FEB 06 2016


NOTE: "FAIR" INDICATES FEW OR NO CLOUDS BELOW 12,000 FEET WITH NO
SIGNIFICANT WEATHER AND/OR OBSTRUCTIONS TO VISIBILITY. N/A MEANS
CURRENT SKY AND/OR WEATHER CONDITIONS ARE NOT AVAILABLE.

MNZ060>063-068>070-061300-
   Twin Cities Metro

CITY           SKY/WX    TMP DP  RH WIND       PRES   REMARKS
TWIN CITIES    CLOUDY    26  21  81 S7        30.14S WCI  18
6HR MIN TEMP:  25; 6HR MAX TEMP:  26;

ST PAUL        CLOUDY    25  21  85 S3        30.15F
CRYSTAL        CLOUDY    26  22  84 S5        30.11F WCI  20
BLAINE         CLOUDY    27  25  93 S6        30.11F WCI  20
LAKEVILLE      CLOUDY    25  21  86 CALM      30.14F
EDEN PRAIRIE   CLOUDY    27  22  81 SW7       30.12F WCI  19
6HR MIN TEMP:  25; 6HR MAX TEMP:  27;

SOUTH ST PAUL  CLOUDY    26  22  83 SW5       30.15R WCI  21
LAKE ELMO      CLOUDY    27  23  86 SW6       30.15R WCI  20
$$
MNZ001>005-007-008-013>017-022>024-027-028-061300-
   Northwest Minnesota

CITY           SKY/WX    TMP DP  RH WIND       PRES   REMARKS
BEMIDJI        CLOUDY    20  19  95 S5        29.95F WCI  13
HALLOCK        CLOUDY    19  18  93 SE12      29.86F WCI   7
ROSEAU         CLOUDY    21  16  79 S6        29.91F WCI  14
WARROAD        CLOUDY    19  16  86 SE3       29.91F
THIEF RVR FALL CLOUDY    23  18  80 S9        29.91F WCI  13
CROOKSTON      CLEAR     21  18  86 S13       29.92F WCI   9
FOSSTON        CLOUDY    23  19  86 S13       29.93F WCI  11
DETROIT LAKES  CLOUDY    23  21  93 S6        29.96F WCI  16
MOORHEAD       CLOUDY    21  18  86 S14       29.95F WCI   8
PARK RAPIDS    CLOUDY    21  18  88 S6        29.97F WCI  13
MAHNOMEN       PTSUNNY   23  19  85 S8        29.94F WCI  14
$$
MNZ006-009>011-018-025>026-061300-
   North Central Minnesota

CITY           SKY/WX    TMP DP  RH WIND       PRES   REMARKS
BAUDETTE       CLOUDY    18  14  84 SE5       29.93F WCI  11
FLAG ISLAND    FLURRIES  18  16  93 SE7       29.92F WCI   8
INTL FALLS     MOCLDY    17  14  88 CALM      29.96F FOG
6HR MIN TEMP:  17; 6HR MAX TEMP:  21;

WASKISH        CLOUDY    21  18  86 S3        29.94F
LONGVILLE      MOCLDY    19  18  93 S6        30.00F WCI  11
GRAND RAPIDS   CLOUDY    19  16  86 S7        30.00S WCI  10
CRANE LAKE     CLOUDY    10   9  92 S1        30.00F
ORR            CLOUDY    16  12  86 CALM      29.95F
COOK           CLOUDY    16  16 100 SW2       29.98F
WALKER         PTSUNNY   20  18  91 S6        29.97F WCI  12
$$
MNZ012-019>021-037-061300-
   Northeast Minnesota

CITY           SKY/WX    TMP DP  RH WIND       PRES   REMARKS
DULUTH         PTCLDY    18  14  84 W9        30.02S WCI   7
6HR MIN TEMP:  16; 6HR MAX TEMP:  22;

ELY            CLOUDY    16  16 100 SW6       29.98F WCI   7
HIBBING        CLOUDY     8   6  92 CALM      29.99F
EVELETH        CLEAR     12   9  85 CALM      30.00F FOG
DULUTH HARBOR  CLOUDY    21  18  86 SW8       30.08S WCI  12
TWO HARBORS    MOCLDY    18  14  86 W5        30.02S WCI  11
SILVER BAY     PTCLDY    19  16  86 CALM      30.00S
GRAND MARAIS     N/A     24  17  74 W3        30.02S
G MARAIS ARPRT CLOUDY    18  12  79 W8        29.95S WCI   7
$$
MNZ029>031-032-039>041-046>048-054>057-064-061300-
   West Central Minnesota

CITY           SKY/WX    TMP DP  RH WIND       PRES   REMARKS
FERGUS FALLS   CLOUDY    21  19  93 S7        30.02F WCI  13
WHEATON        CLOUDY    27  23  86 S10       30.01F WCI  17
MORRIS         CLOUDY    19  18  93 S9        30.02F WCI   9
ALEXANDRIA     FLURRIES  22  19  89 S12       30.02F WCI  10
ELBOW LAKE     FAIR      20  19  96 SE9       30.01F WCI   9
WADENA         CLOUDY    21  19  93 S7        29.99F WCI  13
GLENWOOD       PTCLDY    19  18  93 S7        30.04F WCI  10
APPLETON       CLOUDY    21  19  93 S5        30.05F WCI  15
BENSON         CLOUDY    19  18  93 CALM      30.06S
ORTONVILLE     PTCLDY    25  21  86 S5        30.03F WCI  19
MADISON        CLOUDY    28  27  93 SW14      30.05F WCI  17
WILLMAR        FAIR      21  19  93 S3        30.08F
$$
MNZ033>034-036-042>043-049>051-058-059-061300-
   Central Minnesota

CITY           SKY/WX    TMP DP  RH WIND       PRES   REMARKS
ST CLOUD       MOCLDY    23  21  92 S6        30.08F WCI  16
6HR MIN TEMP:  21; 6HR MAX TEMP:  25;

SAUK CENTRE    FAIR      19  18  96 S7        30.04F WCI  10
PAYNESVILLE    PTCLDY    21  21 100 S5        30.07F WCI  14
AITKIN         PTCLDY    21  18  86 S5        30.02F WCI  15
PINE RIVER     CLOUDY    19  18  93 S5        30.04F FOG     WCI  13
BRAINERD       CLOUDY    20  19  96 S7        30.03F FOG     WCI  11
STAPLES        MOCLDY    21  19  93 S7        30.01F WCI  13
LONG PRAIRIE   FAIR      21  21 100 S6        30.03F WCI  14
LITTLE FALLS   CLOUDY    25  23  93 S5        30.06S FOG     WCI  19
LITCHFIELD     PTCLDY    19  19 100 CALM      30.10S
BUFFALO        PTCLDY    24  21  90 S7        30.11F WCI  16
MAPLE LAKE     PTCLDY    24  23  95 S5        30.10F WCI  18
$$
MNZ037-044-045-052-053-061300-
   East Central Minnesota

CITY           SKY/WX    TMP DP  RH WIND       PRES   REMARKS
PRINCETON      CLOUDY    25  21  86 S3        30.09F
MORA           CLOUDY    23  21  93 SW7       30.10F WCI  15
CAMBRIDGE      CLOUDY    27  18  69 CALM      30.09S
RUSH CITY      CLOUDY    24  20  87 SW6       30.11S WCI  17
MOOSE LAKE     CLOUDY    21  18  86 S5        30.04F WCI  15
HINCKLEY       CLOUDY    25  21  86 SW7       30.08F WCI  17
CLOQUET        CLOUDY    19  16  86 SW5       30.03S WCI  13
MCGREGOR       CLOUDY    21  19  93 S6        30.04S WCI  14
$$
MNZ071>073-080-081-089-090-097-098-061300-
   Southwest Minnesota

CITY           SKY/WX    TMP DP  RH WIND       PRES   REMARKS
MONTEVIDEO     CLOUDY    21  19  93 SW7       30.08F WCI  13
GRANITE FALLS  CLOUDY    24  21  91 S10       30.09F WCI  13
CANBY          CLOUDY    31  26  80 SW15G22   30.07F WCI  21
MARSHALL         N/A    N/A N/A N/A MISG        N/A
REDWOOD FALLS  CLOUDY    19  16  88 S10       30.10F WCI   7
OLIVIA         CLOUDY    21  18  86 S6        30.10S WCI  14
PIPESTONE        N/A     21  16  79 CALM      30.10F
WINDOM         PTCLDY    21  21 100 SW6       30.13F FOG     WCI  14
WORTHINGTON    CLOUDY    19  18  93 SW10      30.14F VSB 1/2 WCI   8
JACKSON        FOG       27  25  93 SW9       30.15S VSB 3/4 WCI  17
TRACY          CLOUDY    24  22  91 SW16      30.10F WCI  11
SLAYTON        CLOUDY    21  21 100 SW10      30.11F WCI  10
$$
MNZ065>067-074>077-082>085-091>093-061300-
   South Central Minnesota

CITY           SKY/WX    TMP DP  RH WIND       PRES   REMARKS
MANKATO        CLOUDY    25  21  86 SW12      30.15S WCI  14
NEW ULM        CLOUDY    16  16 100 S8        30.13F WCI   5
ST JAMES       FOG       23  23 100 S6        30.16S VSB 1   WCI  16
FAIRMONT       CLOUDY    25  19  80 SW8       30.15F VSB 1/2 WCI  16
GLENCOE        PTCLDY    23  22  98 S6        30.11F FOG     WCI  15
FARIBAULT      CLOUDY    27  23  86 S5        30.15S WCI  21
OWATONNA       CLOUDY    27  21  80 SW7       30.16R WCI  19
WASECA         CLOUDY    27  23  86 SW7       30.17R WCI  19
ALBERT LEA     CLOUDY    27  25  93 SW6       30.16F FOG     WCI  20
$$
MNZ078>079-086>088-094>096-061300-
   Southeast Minnesota

CITY           SKY/WX    TMP DP  RH WIND       PRES   REMARKS
ROCHESTER      CLOUDY    25  22  88 SW10      30.14F WCI  15
6HR MIN TEMP:  23; 6HR MAX TEMP:  26;

RED WING       CLOUDY    27  21  80 W7        30.15S WCI  19
STANTON        CLOUDY    26  22  84 SW9       30.14S WCI  17
DODGE CENTER   CLOUDY    25  21  86 W13       30.14F WCI  13
WINONA         CLOUDY    30  27  86 W3        30.19S
AUSTIN         CLOUDY    27  25  93 SW7       30.16F WCI  19
PRESTON        CLOUDY    25  23  92 W10       30.17S FOG     WCI  15
$$
ABBREVIATIONS USED IN REMARKS
   TC - TEMPERATURES IN CELSIUS
  WCI - WIND CHILL INDEX
   HX - HEAT INDEX
  VSB - VISIBILITY
$$



USA.gov is the U.S. government's official web portal to all federal, state and local government web resources and services.